[[{"header":{"parameterUnit":"m.s-1","parameterCategory":2,"la1":30.2991,"la2":30.254,"lo1":-89.0895,"lo2":-89.0444,"dy":0.0017,"dx":0.0017,"nx":28,"ny":28,"refTime":"2024-10-05T09:00:00:Z","depth":"0","parameterNumber":2,"parameterNumberName":"U-component_of_CURRENTS"},"data":[0,0,0,0,0,0,0,0,0,0,0,0,0,0,0,0,0,0,0,0,0,0,0,0,0,0,0,0,0,0,0,0,0,0,0,0,0,0,0,0,0,0,0,0,0,0,0,0,0,0,0,0,0,0,0,0,0,0,0.3069,0.307,0,0.3118,0.3118,0.3118,0.3137,0.3138,0.3138,0.3138,0.3122,0.3121,0.312,0,0,0,0,0,0,0,0,0,0,0,0,0,0.2968,0.2969,0.3069,0.307,0.3071,0.3118,0.3118,0.3118,0.3137,0.3138,0.3138,0.3138,0.3122,0.3121,0.312,0,0,0,0,0,0,0,0,0,0,0,0,0,0.3009,0.297,0.3068,0.309,0.3093,0.3118,0.3118,0.3118,0.3137,0.3138,0.3138,0.3139,0.3122,0.3121,0.312,0.3103,0,0,0.3117,0.3116,0,0,0,0,0,0,0,0,0.3006,0.3012,0.3086,0.3089,0.3092,0.3127,0.3077,0.3112,0.3137,0.3115,0.3138,0.3139,0.312,0.312,0.3121,0.3102,0.3101,0.3117,0.3116,0.3115,0.3115,0,0,0,0,0,0,0,0.3003,0.301,0.3083,0.3087,0.3091,0.3089,0.3095,0.3083,0.3109,0.3117,0.3119,0.3133,0.3121,0.3122,0.3121,0.3101,0.3117,0.3116,0.3115,0.3114,0.3094,0.3094,0,0,0,0,0,0,0.3009,0.3007,0.3081,0.3085,0.3055,0.3091,0.3098,0.3111,0.311,0.3113,0.3133,0.3134,0.3124,0.3122,0.312,0.3126,0.3115,0.3114,0.3114,0.3094,0.3094,0.3094,0,0,0,0,0,0,0.3007,0.3015,0.3079,0.3051,0.306,0.3093,0.3107,0.3111,0.3118,0.3124,0.3125,0.3136,0.3124,0.3122,0.3116,0.3124,0.3114,0.3113,0.3094,0.3094,0.3094,0.3119,0,0,0,0,0,0,0.3003,0.3014,0.3018,0.3052,0.3062,0.3092,0.3107,0.3112,0.3128,0.313,0.3127,0.3126,0.3124,0.3118,0.3115,0.3122,0.3112,0.3094,0.3094,0.3094,0.3118,0.312,0.3122,0,0,0,0,0,0.2999,0.3,0.3018,0.3027,0.307,0.3092,0.3096,0.3118,0.3127,0.3125,0.313,0.3126,0.3118,0.3117,0.3114,0.3121,0.3093,0.3094,0.3094,0.3117,0.312,0.3122,0,0,0,0,0,0,0.2952,0.3004,0.3024,0.3039,0.3066,0.3097,0.31,0.3117,0.312,0.3121,0.3124,0.3122,0.3125,0.3114,0.3113,0.3115,0.3106,0.3106,0.3125,0.3127,0.3129,0.3159,0.3111,0,0,0,0,0,0.2948,0.2964,0.3011,0.3021,0.3037,0.3069,0.308,0.3097,0.3111,0.3113,0.3115,0.3116,0.3122,0.3118,0.3116,0.3109,0.3155,0.3112,0.3114,0.3116,0.3138,0.3219,0.3231,0.3095,0.3095,0.3095,0,0,0.2932,0.2963,0.2972,0.3012,0.3035,0.3057,0.3075,0.3092,0.311,0.3109,0.3118,0.3121,0.3122,0.3125,0.3124,0.3117,0.3178,0.3116,0.3118,0.3139,0.3221,0.3234,0.3247,0.3096,0.3095,0.3095,0,0,0.2911,0.2938,0.2949,0.2974,0.3016,0.304,0.3047,0.308,0.3094,0.3103,0.3117,0.3131,0.3119,0.3138,0.3143,0.3152,0.3189,0.314,0.3171,0.3248,0.3261,0.3273,0.3354,0.3373,0.3137,0.3137,0.3137,0,0.2893,0.2921,0.2951,0.2972,0.3,0.3034,0.3056,0.3072,0.3097,0.3122,0.3106,0.3147,0.3133,0.3178,0.3176,0.3159,0.3214,0.3162,0.3255,0.3267,0.3279,0.336,0.338,0.3139,0.3138,0.3138,0.3138,0,0.2887,0.2914,0.292,0.2967,0.2992,0.3013,0.3056,0.3077,0.3097,0.3126,0.317,0.317,0.3207,0.3192,0.3182,0.3256,0.3272,0.3254,0.3256,0.3295,0.3376,0.3397,0.314,0.314,0.314,0.3139,0,0,0.2839,0.2907,0.2909,0.2939,0.2997,0.3016,0.3057,0.3115,0.3162,0.3175,0.3247,0.3243,0.3269,0.3278,0.3277,0.3325,0.3437,0.3322,0.3326,0.3416,0.363,0.3595,0.3615,0.3444,0.3447,0.345,0.3656,0,0.2832,0.2871,0.291,0.2949,0.2979,0.3036,0.3076,0.3131,0.3179,0.325,0.3284,0.3336,0.3295,0.3323,0.337,0.3429,0.3494,0.3385,0.3568,0.3574,0.3549,0.3638,0.3484,0.3651,0.3677,0.368,0.3683,0,0.2816,0.2852,0.2888,0.297,0.2989,0.3013,0.3111,0.3152,0.326,0.3308,0.3384,0.3426,0.3512,0.3463,0.3613,0.3551,0.3599,0.3633,0.3642,0.362,0.3578,0.3613,0.3688,0.3615,0.3716,0.3713,0.3711,0,0.277,0.2837,0.2868,0.2891,0.298,0.3012,0.3061,0.3163,0.3241,0.3358,0.3448,0.354,0.3623,0.3693,0.3766,0.3707,0.3942,0.3869,0.3891,0.3889,0.38,0.3784,0.3836,0.3992,0.3991,0.3991,0.399,0,0.2748,0.2771,0.2845,0.2859,0.2914,0.2981,0.3064,0.3133,0.328,0.3376,0.3476,0.3585,0.3689,0.3826,0.3849,0.3962,0.4022,0.3937,0.3953,0.3802,0.3784,0.3747,0.3699,0.3998,0.3997,0.3995,0.3994,0,0.2684,0.2733,0.2773,0.2858,0.289,0.2921,0.3072,0.3136,0.3283,0.3425,0.3478,0.3683,0.3839,0.3956,0.41,0.4088,0.407,0.4195,0.4015,0.4004,0.3887,0.3845,0.3794,0.3674,0.4241,0.4242,0.4242,0,0.2653,0.2666,0.2752,0.278,0.2813,0.289,0.2947,0.3107,0.3191,0.3459,0.3521,0.376,0.3892,0.414,0.4164,0.4264,0.4121,0.4164,0.3998,0.3901,0.3867,0.3693,0.3581,0.39,0.3898,0.3896,0.3894,0,0.2597,0.2625,0.2659,0.272,0.2767,0.284,0.2934,0.3025,0.3205,0.335,0.3542,0.3689,0.3944,0.3995,0.4155,0.4166,0.3954,0.4124,0.4074,0.3661,0.3427,0.331,0.3755,0.3877,0.3879,0.388,0.3881,0.3882,0.2549,0.2558,0.2607,0.2651,0.2708,0.276,0.2785,0.2911,0.3047,0.3211,0.3416,0.3564,0.3768,0.3965,0.3978,0.3915,0.3854,0.3782,0.3765,0.3618,0.3409,0.3822,0.3916,0.3918,0.3919,0.3921,0.3922,0,0.2479,0.2501,0.2542,0.2583,0.259,0.2655,0.2746,0.2748,0.2829,0.3022,0.3161,0.3369,0.3484,0.363,0.3695,0.3584,0.3384,0.3492,0.3211,0.3134,0.3571,0.3462,0.3398,0.3398,0.3398,0.3398,0.3398,0.3398,0.2448,0.2444,0.2461,0.2445,0.2466,0.2434,0.2449,0.248,0.2581,0.2705,0.282,0.2974,0.3327,0.3517,0.3468,0.3369,0.3095,0.2961,0.2955,0.3279,0.3303,0.3325,0.3212,0.3097,0.3096,0.2356,0.2351,0.2347]},{"header":{"parameterUnit":"m.s-1","parameterCategory":2,"la1":30.2991,"la2":30.254,"lo1":-89.0895,"lo2":-89.0444,"dy":0.0017,"dx":0.0017,"nx":28,"ny":28,"refTime":"2024-10-05T09:00:00:Z","depth":"0","parameterNumber":3,"parameterNumberName":"V-component_of_CURRENTS"},"data":[0,0,0,0,0,0,0,0,0,0,0,0,0,0,0,0,0,0,0,0,0,0,0,0,0,0,0,0,0,0,0,0,0,0,0,0,0,0,0,0,0,0,0,0,0,0,0,0,0,0,0,0,0,0,0,0,0,0,-0.0241,-0.0242,0,-0.0338,-0.0339,-0.034,-0.0416,-0.0416,-0.0417,-0.0418,-0.0529,-0.0531,-0.0534,0,0,0,0,0,0,0,0,0,0,0,0,0,-0.0146,-0.0147,-0.0241,-0.0242,-0.0243,-0.0338,-0.0339,-0.0341,-0.0415,-0.0416,-0.0417,-0.0418,-0.0528,-0.0531,-0.0534,0,0,0,0,0,0,0,0,0,0,0,0,0,-0.021,-0.0147,-0.024,-0.0292,-0.0297,-0.0338,-0.0339,-0.0341,-0.0415,-0.0416,-0.0417,-0.0418,-0.0527,-0.0531,-0.0534,-0.0536,0,0,-0.0545,-0.0547,0,0,0,0,0,0,0,0,-0.0206,-0.0213,-0.0283,-0.0288,-0.0294,-0.0365,-0.0347,-0.0407,-0.0415,-0.0371,-0.0418,-0.0419,-0.0475,-0.0483,-0.0499,-0.0541,-0.0546,-0.0545,-0.0547,-0.0549,-0.055,0,0,0,0,0,0,0,-0.0201,-0.0209,-0.028,-0.0284,-0.0291,-0.0319,-0.0328,-0.0359,-0.0416,-0.0375,-0.038,-0.039,-0.0478,-0.0495,-0.0502,-0.0547,-0.0545,-0.0548,-0.0551,-0.0552,-0.0595,-0.0594,0,0,0,0,0,0,-0.0186,-0.0205,-0.0277,-0.0283,-0.0251,-0.0319,-0.033,-0.0342,-0.0416,-0.0428,-0.0389,-0.0393,-0.0489,-0.0498,-0.0506,-0.0508,-0.0549,-0.0552,-0.0554,-0.0596,-0.0595,-0.0593,0,0,0,0,0,0,-0.0184,-0.0192,-0.0273,-0.0246,-0.0258,-0.032,-0.0332,-0.0343,-0.0358,-0.0427,-0.0439,-0.0392,-0.049,-0.0501,-0.0524,-0.0513,-0.0554,-0.0557,-0.0597,-0.0595,-0.0594,-0.0514,0,0,0,0,0,0,-0.0181,-0.019,-0.0186,-0.0245,-0.0259,-0.0282,-0.0331,-0.0344,-0.0363,-0.0369,-0.0433,-0.0445,-0.0492,-0.0518,-0.0527,-0.0519,-0.056,-0.0598,-0.0596,-0.0594,-0.0518,-0.051,-0.0503,0,0,0,0,0,-0.0177,-0.0165,-0.0185,-0.0194,-0.0254,-0.0281,-0.029,-0.0339,-0.0361,-0.0358,-0.0402,-0.0443,-0.0513,-0.052,-0.0531,-0.0523,-0.0599,-0.0597,-0.0595,-0.0521,-0.0511,-0.0503,0,0,0,0,0,0,-0.0121,-0.0173,-0.0197,-0.0201,-0.0233,-0.0294,-0.0293,-0.0326,-0.0359,-0.0364,-0.0431,-0.0445,-0.0462,-0.0497,-0.0502,-0.0529,-0.0563,-0.0562,-0.0503,-0.0494,-0.0487,-0.0477,-0.0563,0,0,0,0,0,-0.0106,-0.0111,-0.0164,-0.0166,-0.0177,-0.0232,-0.0247,-0.0279,-0.0319,-0.0335,-0.0381,-0.0426,-0.0461,-0.048,-0.0515,-0.0525,-0.0563,-0.0527,-0.0519,-0.0513,-0.0511,-0.0565,-0.0562,-0.0586,-0.0586,-0.0586,0,0,-0.0087,-0.0113,-0.0118,-0.0154,-0.0183,-0.0189,-0.0243,-0.0257,-0.0265,-0.034,-0.0356,-0.04,-0.0456,-0.0474,-0.0484,-0.0502,-0.052,-0.051,-0.0505,-0.0506,-0.0562,-0.056,-0.0558,-0.0585,-0.0585,-0.0585,0,0,-0.0046,-0.0071,-0.0061,-0.008,-0.0114,-0.0146,-0.0144,-0.0196,-0.0219,-0.0239,-0.0296,-0.0331,-0.0379,-0.0424,-0.0452,-0.0422,-0.0479,-0.0428,-0.0387,-0.0438,-0.0437,-0.0437,-0.0457,-0.0459,-0.0426,-0.0426,-0.0426,0,-0.0019,-0.0019,-0.006,-0.0054,-0.0062,-0.0121,-0.0109,-0.0139,-0.0191,-0.0206,-0.023,-0.0311,-0.0359,-0.0393,-0.0386,-0.0407,-0.0435,-0.0416,-0.043,-0.043,-0.0431,-0.0453,-0.0456,-0.0422,-0.0422,-0.0423,-0.0423,0,0.0023,0.0026,0.0035,0.0019,0.0009,0.0012,-0.0034,-0.0047,-0.0081,-0.0121,-0.0157,-0.0226,-0.0278,-0.0296,-0.0335,-0.036,-0.0376,-0.0414,-0.0453,-0.0424,-0.0448,-0.0453,-0.0416,-0.0417,-0.0419,-0.042,0,0,0.0073,0.0066,0.0069,0.008,0.0049,0.0048,0.0041,0.0015,0.0012,-0.0046,-0.006,-0.0131,-0.0177,-0.0211,-0.0268,-0.0314,-0.034,-0.0359,-0.0363,-0.0379,-0.0431,-0.041,-0.0414,-0.0384,-0.0385,-0.0385,-0.0436,0,0.0119,0.0153,0.0132,0.0166,0.018,0.0135,0.0134,0.0103,0.0067,0.0042,-0.0042,-0.0074,-0.0143,-0.0162,-0.0222,-0.0311,-0.0353,-0.0321,-0.0457,-0.046,-0.0446,-0.0419,-0.039,-0.043,-0.0442,-0.0442,-0.0443,0,0.0167,0.0184,0.0226,0.024,0.0242,0.0249,0.0243,0.0233,0.0177,0.0146,0.0088,0.0027,-0.0047,-0.0109,-0.0253,-0.0229,-0.0319,-0.0392,-0.0397,-0.0412,-0.0449,-0.0466,-0.044,-0.0601,-0.0452,-0.0451,-0.045,0,0.0226,0.0252,0.0293,0.0296,0.0297,0.0307,0.0301,0.0263,0.0275,0.0212,0.0218,0.0103,0.0069,-0.0075,-0.0215,-0.0239,-0.0365,-0.0423,-0.0487,-0.0486,-0.0505,-0.0504,-0.0653,-0.0524,-0.0524,-0.0524,-0.0524,0,0.0283,0.0315,0.0325,0.0346,0.04,0.0368,0.0411,0.0382,0.0364,0.0393,0.0278,0.029,0.0075,-0.0016,-0.0177,-0.0327,-0.0339,-0.047,-0.05,-0.0471,-0.0467,-0.0644,-0.0757,-0.0526,-0.0526,-0.0525,-0.0525,0,0.0341,0.0345,0.0395,0.0413,0.043,0.0463,0.0501,0.0526,0.0494,0.0529,0.0522,0.0436,0.0321,0.0122,-0.0091,-0.0247,-0.0505,-0.0466,-0.0396,-0.0417,-0.0638,-0.0746,-0.094,-0.1008,-0.0556,-0.0556,-0.0556,0,0.0373,0.0406,0.0458,0.05,0.0513,0.0563,0.06,0.0589,0.063,0.0635,0.0669,0.0586,0.0562,0.0272,-0.002,-0.0284,-0.0472,-0.0447,-0.0502,-0.0636,-0.078,-0.0861,-0.0911,-0.049,-0.0489,-0.0488,-0.0488,0,0.0437,0.0452,0.0496,0.0585,0.0639,0.0711,0.0766,0.083,0.0826,0.0881,0.0943,0.0934,0.067,0.044,0.0071,-0.0142,-0.0562,-0.0443,-0.062,-0.0765,-0.0828,-0.0911,-0.0453,-0.0483,-0.0483,-0.0484,-0.0484,-0.0484,0.0487,0.053,0.0591,0.068,0.075,0.0847,0.0924,0.1007,0.1116,0.1209,0.1176,0.1208,0.084,0.0359,0.005,-0.0488,-0.0523,-0.0658,-0.0782,-0.0852,-0.0914,-0.0419,-0.0461,-0.0462,-0.0462,-0.0462,-0.0462,0,0.0548,0.06,0.0684,0.0786,0.0877,0.09,0.1032,0.1125,0.1288,0.1388,0.1464,0.1332,0.0875,0.0366,-0.0342,-0.0739,-0.0912,-0.0977,-0.1108,-0.1147,-0.0736,-0.0727,-0.0781,-0.0781,-0.0781,-0.0781,-0.0781,-0.078,0.058,0.067,0.0713,0.0878,0.0956,0.1088,0.1174,0.1326,0.1442,0.1605,0.1656,0.1657,0.1299,0.001,-0.0868,-0.1096,-0.1397,-0.1468,-0.1615,-0.136,-0.134,-0.1321,-0.1339,-0.1521,-0.1522,-0.1953,-0.1957,-0.1961]}],[{"header":{"parameterUnit":"m.s-1","parameterCategory":2,"la1":30.2991,"la2":30.254,"lo1":-89.0895,"lo2":-89.0444,"dy":0.0017,"dx":0.0017,"nx":28,"ny":28,"refTime":"2024-10-05T09:00:00:Z","depth":"2","parameterNumber":2,"parameterNumberName":"U-component_of_CURRENTS"},"data":[0,0,0,0,0,0,0,0,0,0,0,0,0,0,0,0,0,0,0,0,0,0,0,0,0,0,0,0,0,0,0,0,0,0,0,0,0,0,0,0,0,0,0,0,0,0,0,0,0,0,0,0,0,0,0,0,0,0,0.2706,0.2707,0,0.2755,0.2755,0.2756,0.2774,0.2774,0.2774,0.2774,0.2776,0.2776,0.2776,0,0,0,0,0,0,0,0,0,0,0,0,0,0.2644,0.2645,0.2706,0.2707,0.2707,0.2755,0.2755,0.2756,0.2774,0.2774,0.2774,0.2774,0.2776,0.2776,0.2776,0,0,0,0,0,0,0,0,0,0,0,0,0,0.2678,0.2645,0.2706,0.2724,0.2726,0.2755,0.2755,0.2756,0.2774,0.2774,0.2774,0.2774,0.2776,0.2776,0.2776,0.2774,0,0,0.2776,0.2776,0,0,0,0,0,0,0,0,0.2676,0.268,0.272,0.2723,0.2725,0.2761,0.2735,0.276,0.2774,0.2753,0.2774,0.2774,0.2768,0.2768,0.2775,0.2774,0.2774,0.2776,0.2776,0.2776,0.2776,0,0,0,0,0,0,0,0.2673,0.2678,0.2723,0.2721,0.2724,0.2736,0.274,0.274,0.2757,0.2755,0.2757,0.2766,0.2768,0.2775,0.2775,0.2774,0.2776,0.2776,0.2776,0.2776,0.281,0.2811,0,0,0,0,0,0,0.2671,0.2675,0.2721,0.2725,0.2703,0.2737,0.2742,0.2747,0.2758,0.2761,0.2766,0.2767,0.2775,0.2775,0.2775,0.2806,0.2776,0.2776,0.2776,0.281,0.2811,0.2812,0,0,0,0,0,0,0.267,0.2675,0.2719,0.2703,0.271,0.2738,0.2744,0.2748,0.2769,0.2767,0.2769,0.2784,0.2775,0.2775,0.2788,0.2805,0.2776,0.2776,0.2808,0.281,0.2811,0.2848,0,0,0,0,0,0,0.2668,0.2674,0.2682,0.2703,0.2711,0.2742,0.2744,0.2749,0.2775,0.2776,0.2783,0.2782,0.2775,0.2788,0.2788,0.2805,0.2776,0.2807,0.2809,0.2811,0.2845,0.285,0.2854,0,0,0,0,0,0.2665,0.2672,0.2682,0.2688,0.272,0.2742,0.2747,0.2766,0.2776,0.2785,0.2793,0.2783,0.28,0.2789,0.2789,0.2805,0.2806,0.2809,0.2811,0.2843,0.2849,0.2854,0,0,0,0,0,0,0.2647,0.2676,0.2687,0.2702,0.2725,0.2747,0.2761,0.2775,0.2791,0.2796,0.2793,0.2793,0.2813,0.2805,0.2794,0.2822,0.2802,0.2804,0.2827,0.2833,0.2837,0.2852,0.2776,0,0,0,0,0,0.2648,0.2662,0.2691,0.2703,0.2718,0.2743,0.2758,0.2772,0.2788,0.2796,0.28,0.2808,0.2819,0.2823,0.2827,0.2839,0.2865,0.2851,0.2856,0.2859,0.2872,0.2933,0.2945,0.2819,0.2819,0.2819,0,0,0.2643,0.2663,0.267,0.2701,0.2721,0.2742,0.2752,0.2778,0.2798,0.2792,0.2816,0.2823,0.2827,0.2844,0.2852,0.284,0.2909,0.2862,0.2865,0.2876,0.2937,0.295,0.2961,0.282,0.282,0.282,0,0,0.2639,0.2661,0.2673,0.2695,0.2732,0.2749,0.2761,0.2791,0.2808,0.2831,0.2838,0.2859,0.2865,0.2879,0.2885,0.2918,0.2933,0.2917,0.2949,0.3009,0.302,0.303,0.3081,0.3096,0.2917,0.2917,0.2917,0,0.2634,0.2655,0.268,0.27,0.2725,0.2754,0.2777,0.2797,0.2826,0.285,0.2841,0.2887,0.2884,0.2926,0.2936,0.2929,0.2966,0.2927,0.3016,0.3027,0.3036,0.3086,0.3102,0.2919,0.2918,0.2918,0.2918,0,0.2638,0.2663,0.2674,0.2711,0.2737,0.2763,0.2798,0.2826,0.285,0.2874,0.2922,0.2929,0.2963,0.2961,0.2957,0.3026,0.3031,0.3017,0.3004,0.3052,0.3101,0.3116,0.2922,0.2921,0.292,0.292,0,0,0.2607,0.2667,0.2671,0.2696,0.2751,0.2769,0.2813,0.2864,0.2906,0.2929,0.2989,0.3005,0.3027,0.3037,0.3042,0.3084,0.3177,0.3084,0.3086,0.3137,0.3318,0.327,0.3282,0.3187,0.319,0.3192,0.3326,0,0.2607,0.2644,0.2679,0.2719,0.2746,0.2797,0.2836,0.2886,0.2932,0.2993,0.3026,0.3078,0.3051,0.3083,0.3122,0.3176,0.3221,0.3143,0.3262,0.3265,0.322,0.3299,0.3044,0.3137,0.3341,0.3343,0.3345,0,0.2599,0.263,0.2667,0.2739,0.2756,0.2784,0.2869,0.2908,0.3,0.3048,0.3112,0.3149,0.3229,0.3193,0.3311,0.327,0.33,0.3326,0.3331,0.3286,0.3246,0.3121,0.3157,0.3371,0.3369,0.3367,0.3366,0,0.2559,0.2623,0.2653,0.2675,0.2753,0.2787,0.2832,0.292,0.2986,0.3094,0.3168,0.3249,0.3324,0.3373,0.3425,0.3391,0.355,0.3507,0.3488,0.3485,0.3289,0.3264,0.3588,0.3588,0.3587,0.3587,0.3587,0,0.2542,0.2566,0.2636,0.2649,0.27,0.2762,0.2834,0.2899,0.3023,0.3101,0.3193,0.3278,0.3379,0.3471,0.3483,0.3548,0.3603,0.3521,0.3527,0.3294,0.3269,0.3481,0.3466,0.3592,0.3591,0.359,0.3589,0,0.2486,0.2533,0.257,0.265,0.2679,0.2709,0.2837,0.2893,0.3021,0.3135,0.3186,0.3359,0.3478,0.3554,0.3662,0.3639,0.3686,0.3682,0.3402,0.3372,0.3566,0.3552,0.3695,0.3695,0.3695,0.3694,0.3694,0,0.2459,0.2472,0.2551,0.2575,0.261,0.2678,0.2728,0.287,0.2937,0.3158,0.3204,0.3395,0.348,0.3643,0.3654,0.3701,0.3715,0.3468,0.3345,0.3592,0.3583,0.3569,0.3556,0.3102,0.3097,0.3093,0.309,0,0.2407,0.2437,0.2467,0.2518,0.2565,0.262,0.27,0.2766,0.2924,0.3033,0.3173,0.3275,0.3464,0.3419,0.3511,0.3482,0.3441,0.3387,0.3741,0.3113,0.3043,0.3031,0.3035,0.3053,0.3057,0.306,0.3062,0.3063,0.2364,0.2371,0.2414,0.245,0.2502,0.2532,0.2542,0.2638,0.2728,0.2845,0.3016,0.3073,0.3182,0.3199,0.3134,0.3096,0.332,0.3155,0.3164,0.3177,0.3083,0.3016,0.3004,0.3008,0.301,0.3013,0.3015,0,0.2296,0.2314,0.2347,0.2375,0.2377,0.2441,0.2496,0.2476,0.2507,0.2648,0.2738,0.2606,0.2632,0.2717,0.2633,0.2675,0.2601,0.2544,0.2413,0.2455,0.2491,0.2355,0.2087,0.2083,0.2079,0.2076,0,0,0.2263,0.2251,0.2262,0.2232,0.2253,0.2215,0.2213,0.2203,0.2257,0.2253,0.2271,0.2497,0.2647,0.2311,0.2312,0.2176,0.2275,0.2093,0.2852,0.274,0.277,0.2881,0.2726,0,0,0,0,0]},{"header":{"parameterUnit":"m.s-1","parameterCategory":2,"la1":30.2991,"la2":30.254,"lo1":-89.0895,"lo2":-89.0444,"dy":0.0017,"dx":0.0017,"nx":28,"ny":28,"refTime":"2024-10-05T09:00:00:Z","depth":"2","parameterNumber":3,"parameterNumberName":"V-component_of_CURRENTS"},"data":[0,0,0,0,0,0,0,0,0,0,0,0,0,0,0,0,0,0,0,0,0,0,0,0,0,0,0,0,0,0,0,0,0,0,0,0,0,0,0,0,0,0,0,0,0,0,0,0,0,0,0,0,0,0,0,0,0,0,0.0051,0.005,0,-0.0035,-0.0036,-0.0037,-0.0091,-0.0092,-0.0092,-0.0092,-0.019,-0.0193,-0.0195,0,0,0,0,0,0,0,0,0,0,0,0,0,0.0105,0.0105,0.0051,0.005,0.0049,-0.0034,-0.0036,-0.0037,-0.0091,-0.0092,-0.0092,-0.0092,-0.019,-0.0193,-0.0195,0,0,0,0,0,0,0,0,0,0,0,0,0,0.0056,0.0104,0.0051,0.0013,0.0008,-0.0034,-0.0036,-0.0037,-0.0091,-0.0092,-0.0092,-0.0092,-0.0189,-0.0192,-0.0196,-0.0212,0,0,-0.0207,-0.0209,0,0,0,0,0,0,0,0,0.0059,0.0054,0.0019,0.0015,0.001,-0.0051,-0.0053,-0.0096,-0.0091,-0.0055,-0.0092,-0.0092,-0.0144,-0.0151,-0.0169,-0.0217,-0.0221,-0.0207,-0.021,-0.0211,-0.0212,0,0,0,0,0,0,0,0.0062,0.0057,0.0015,0.0018,0.0013,-0.0021,-0.0028,-0.0061,-0.0098,-0.0058,-0.0062,-0.0069,-0.0147,-0.0165,-0.0171,-0.0222,-0.0207,-0.021,-0.0213,-0.0214,-0.0298,-0.0298,0,0,0,0,0,0,0.0079,0.006,0.0018,0.0013,0.0036,-0.0021,-0.0029,-0.0032,-0.0098,-0.0107,-0.0069,-0.0071,-0.0159,-0.0167,-0.0175,-0.0191,-0.0211,-0.0214,-0.0217,-0.0298,-0.0298,-0.0298,0,0,0,0,0,0,0.0081,0.0076,0.0022,0.0035,0.0026,-0.0021,-0.0025,-0.0034,-0.0053,-0.0105,-0.0116,-0.0079,-0.0159,-0.017,-0.0202,-0.0196,-0.0216,-0.0219,-0.0298,-0.0298,-0.0298,-0.0228,0,0,0,0,0,0,0.0083,0.0077,0.0079,0.0037,0.0026,0.0003,-0.0025,-0.0035,-0.0057,-0.0061,-0.0117,-0.0127,-0.016,-0.0196,-0.0205,-0.0201,-0.0222,-0.0298,-0.0298,-0.0298,-0.023,-0.0226,-0.0222,0,0,0,0,0,0.0085,0.0092,0.0079,0.0074,0.0031,0.0004,-0.0005,-0.0042,-0.0056,-0.0061,-0.0099,-0.0125,-0.0203,-0.0199,-0.021,-0.0206,-0.0298,-0.0298,-0.0298,-0.0232,-0.0227,-0.0222,0,0,0,0,0,0,0.0114,0.0086,0.0071,0.0068,0.0041,-0.0005,-0.0012,-0.0038,-0.0072,-0.0075,-0.0126,-0.0137,-0.0164,-0.0196,-0.019,-0.0232,-0.0255,-0.0257,-0.0201,-0.0197,-0.0192,-0.0171,-0.0225,0,0,0,0,0,0.0123,0.0122,0.0086,0.0085,0.0074,0.0032,0.0015,-0.0007,-0.0042,-0.0059,-0.0097,-0.0139,-0.0173,-0.0192,-0.0228,-0.025,-0.0276,-0.0256,-0.0252,-0.0248,-0.0239,-0.0276,-0.0274,-0.0298,-0.0298,-0.0298,0,0,0.0134,0.0119,0.0117,0.0091,0.0067,0.0061,0.0021,0.0004,-0.0003,-0.0063,-0.0083,-0.0125,-0.0176,-0.02,-0.0215,-0.0226,-0.0254,-0.0248,-0.0244,-0.0237,-0.0276,-0.0274,-0.0271,-0.0298,-0.0298,-0.0298,0,0,0.0161,0.0143,0.0152,0.0135,0.0108,0.0083,0.0082,0.004,0.002,-0.0005,-0.0049,-0.0084,-0.0139,-0.0172,-0.0196,-0.0191,-0.0231,-0.0206,-0.0166,-0.0203,-0.0201,-0.0199,-0.0222,-0.0223,-0.0203,-0.0203,-0.0203,0,0.0175,0.0182,0.015,0.0154,0.0148,0.0099,0.0109,0.0081,0.0034,0.0024,-0.0,-0.0078,-0.0123,-0.0151,-0.0152,-0.0179,-0.0203,-0.0178,-0.0195,-0.0195,-0.0194,-0.0218,-0.022,-0.02,-0.02,-0.0201,-0.0201,0,0.0207,0.0212,0.0216,0.0209,0.0198,0.0198,0.0162,0.0146,0.0117,0.0087,0.0052,-0.0013,-0.0056,-0.008,-0.0117,-0.0137,-0.0155,-0.0184,-0.0203,-0.0187,-0.0214,-0.0217,-0.0195,-0.0196,-0.0197,-0.0198,0,0,0.0244,0.0241,0.0243,0.0257,0.023,0.023,0.0221,0.0203,0.0209,0.0149,0.0148,0.0072,0.0035,0.0005,-0.0049,-0.0086,-0.0109,-0.013,-0.0133,-0.014,-0.018,-0.0192,-0.0197,-0.0142,-0.0143,-0.0143,-0.0195,0,0.028,0.0311,0.0295,0.0326,0.0341,0.0304,0.0303,0.028,0.0253,0.0238,0.0164,0.0138,0.0068,0.005,0.0001,-0.0081,-0.0117,-0.0092,-0.0203,-0.0206,-0.021,-0.0201,-0.0175,-0.0219,-0.0199,-0.0199,-0.02,0,0.0318,0.0336,0.0375,0.0396,0.0399,0.0405,0.0411,0.0404,0.0365,0.0345,0.0301,0.0244,0.0179,0.0118,-0.0009,0.001,-0.0075,-0.0143,-0.0148,-0.0184,-0.0225,-0.0235,-0.0227,-0.0206,-0.0206,-0.0205,-0.0205,0,0.0368,0.0396,0.0435,0.0439,0.0447,0.0458,0.0457,0.0435,0.0455,0.0414,0.0426,0.0329,0.0296,0.017,0.0025,0.0007,-0.0108,-0.0153,-0.0242,-0.0244,-0.0256,-0.0258,-0.0238,-0.0238,-0.0237,-0.0237,-0.0237,0,0.0416,0.0448,0.0463,0.0483,0.0537,0.0514,0.0564,0.0548,0.0549,0.0588,0.0486,0.05,0.0307,0.0216,0.0065,-0.0089,-0.008,-0.0228,-0.0259,-0.0231,-0.023,-0.0249,-0.025,-0.0239,-0.0239,-0.0238,-0.0238,0,0.0466,0.0472,0.0522,0.0546,0.0563,0.0598,0.0648,0.0685,0.0668,0.0718,0.0712,0.0635,0.0513,0.0323,0.0127,-0.0018,-0.0178,-0.0236,-0.0182,-0.0206,-0.03,-0.0297,-0.0344,-0.0345,-0.0346,-0.0346,-0.0347,0,0.0493,0.0525,0.058,0.0621,0.0636,0.069,0.0733,0.0743,0.0799,0.0811,0.085,0.0752,0.0706,0.0419,0.0143,-0.0114,-0.0158,-0.0265,-0.0306,-0.0286,-0.0311,-0.0307,-0.0302,-0.0293,-0.0293,-0.0293,-0.0293,0,0.0551,0.0567,0.0612,0.0699,0.0757,0.0834,0.09,0.0969,0.0987,0.1032,0.1075,0.1038,0.0766,0.0517,0.0155,-0.0029,-0.0228,-0.0275,-0.0267,-0.0268,-0.0242,-0.0265,-0.0262,-0.0293,-0.0293,-0.0293,-0.0293,-0.0293,0.0596,0.064,0.0702,0.0789,0.0861,0.0963,0.104,0.1123,0.1224,0.1289,0.1249,0.1199,0.0903,0.0453,0.0133,-0.0219,-0.021,-0.0339,-0.0337,-0.0336,-0.0319,-0.0295,-0.0352,-0.0353,-0.0353,-0.0353,-0.0353,0,0.0655,0.0706,0.0789,0.089,0.0979,0.1008,0.1145,0.1225,0.1354,0.14,0.1429,0.116,0.0873,0.0522,0.0015,-0.0287,-0.0323,-0.0393,-0.0362,-0.0359,-0.0357,-0.0341,-0.0381,-0.0382,-0.0383,-0.0384,0,0,0.0686,0.0775,0.0817,0.0973,0.1047,0.1177,0.126,0.1377,0.1448,0.1501,0.1473,0.1407,0.0988,0.0625,0.0212,-0.0083,-0.016,-0.0154,-0.0099,-0.0012,-0.0006,-0.0294,-0.0261,0,0,0,0,0]}],[{"header":{"parameterUnit":"m.s-1","parameterCategory":2,"la1":30.2991,"la2":30.254,"lo1":-89.0895,"lo2":-89.0444,"dy":0.0017,"dx":0.0017,"nx":28,"ny":28,"refTime":"2024-10-05T09:00:00:Z","depth":"4","parameterNumber":2,"parameterNumberName":"U-component_of_CURRENTS"},"data":[0,0,0,0,0,0,0,0,0,0,0,0,0,0,0,0,0,0,0,0,0,0,0,0,0,0,0,0,0,0,0,0,0,0,0,0,0,0,0,0,0,0,0,0,0,0,0,0,0,0,0,0,0,0,0,0,0,0,0.1724,0.1724,0,0.1775,0.1775,0.1776,0.1817,0.1818,0.1818,0.1819,0.1894,0.1895,0.1897,0,0,0,0,0,0,0,0,0,0,0,0,0,0.1663,0.1663,0.1723,0.1724,0.1725,0.1775,0.1775,0.1776,0.1817,0.1818,0.1818,0.1819,0.1893,0.1895,0.1897,0,0,0,0,0,0,0,0,0,0,0,0,0,0.1697,0.1664,0.1723,0.1753,0.1756,0.1775,0.1775,0.1776,0.1817,0.1818,0.1818,0.1819,0.1893,0.1895,0.1897,0.1894,0,0,0.1904,0.1905,0,0,0,0,0,0,0,0,0.1695,0.1699,0.1748,0.1751,0.1754,0.1792,0.1781,0.1817,0.1817,0.1792,0.1819,0.182,0.1862,0.1867,0.1872,0.1897,0.19,0.1904,0.1905,0.1906,0.1907,0,0,0,0,0,0,0,0.1693,0.1698,0.1742,0.1748,0.1753,0.1764,0.177,0.1788,0.1821,0.1794,0.1798,0.1806,0.1864,0.187,0.1874,0.1901,0.1904,0.1906,0.1907,0.1908,0.2036,0.2038,0,0,0,0,0,0,0.1689,0.1695,0.1741,0.1744,0.1728,0.1764,0.1771,0.1778,0.182,0.1828,0.1805,0.1807,0.1866,0.1872,0.1877,0.1971,0.1906,0.1908,0.1909,0.2034,0.2037,0.2039,0,0,0,0,0,0,0.1687,0.1692,0.1739,0.1722,0.1729,0.1765,0.1772,0.1778,0.1822,0.1828,0.1836,0.1847,0.1867,0.1874,0.1933,0.197,0.1909,0.1911,0.2032,0.2035,0.2038,0.2097,0,0,0,0,0,0,0.1685,0.1691,0.1715,0.1722,0.173,0.1777,0.1772,0.1779,0.1824,0.1829,0.1867,0.1872,0.1868,0.1929,0.1935,0.1972,0.1913,0.2029,0.2033,0.2037,0.2093,0.2102,0.211,0,0,0,0,0,0.1683,0.1703,0.1716,0.1723,0.1755,0.1778,0.1784,0.1811,0.1826,0.1853,0.1883,0.1873,0.1958,0.1933,0.1939,0.1978,0.2027,0.2032,0.2037,0.2089,0.21,0.211,0,0,0,0,0,0,0.1689,0.1709,0.1724,0.1751,0.1778,0.1787,0.1818,0.1834,0.1877,0.1896,0.1899,0.1907,0.1972,0.1971,0.1943,0.2028,0.1991,0.1997,0.2029,0.204,0.2048,0.2038,0.1915,0,0,0,0,0,0.1701,0.1726,0.1744,0.1772,0.1789,0.1812,0.1834,0.1853,0.1881,0.1903,0.1929,0.196,0.1988,0.2013,0.2036,0.2083,0.2081,0.2113,0.2122,0.2129,0.2126,0.2155,0.2166,0.2054,0.2054,0.2054,0,0,0.1711,0.1728,0.1743,0.1777,0.1801,0.1827,0.1829,0.1874,0.1904,0.1904,0.1971,0.1996,0.2009,0.2062,0.2091,0.2071,0.2166,0.2135,0.2141,0.2134,0.2161,0.2172,0.2181,0.2058,0.2057,0.2057,0,0,0.1728,0.1762,0.1784,0.181,0.1856,0.1869,0.1891,0.1927,0.196,0.2018,0.2027,0.2075,0.2124,0.2137,0.2147,0.2219,0.2211,0.2239,0.2274,0.2303,0.2312,0.2319,0.2349,0.2358,0.2242,0.2242,0.2243,0,0.1745,0.1771,0.1797,0.1824,0.1854,0.1891,0.1922,0.1954,0.2009,0.2039,0.2053,0.2135,0.2152,0.22,0.2228,0.2237,0.2255,0.223,0.2313,0.232,0.2327,0.2354,0.2364,0.2246,0.2245,0.2245,0.2245,0,0.1763,0.1803,0.1823,0.1867,0.1901,0.1941,0.198,0.2031,0.2077,0.2104,0.2184,0.2212,0.2257,0.2276,0.2275,0.2338,0.2338,0.2319,0.228,0.2341,0.2367,0.2376,0.2251,0.225,0.2248,0.2248,0,0,0.1747,0.1821,0.1833,0.1864,0.1933,0.1955,0.202,0.2077,0.2123,0.2187,0.2244,0.2302,0.2329,0.2343,0.2358,0.2385,0.2456,0.2381,0.2381,0.24,0.2534,0.2404,0.2401,0.2459,0.246,0.2462,0.2538,0,0.176,0.1812,0.1851,0.1913,0.1943,0.2004,0.2056,0.2117,0.2177,0.2242,0.2287,0.235,0.2351,0.239,0.2419,0.2449,0.2481,0.2437,0.248,0.2481,0.2349,0.2407,0.2467,0.2545,0.2547,0.2548,0.255,0,0.1757,0.1797,0.1857,0.1938,0.1959,0.2005,0.2098,0.2149,0.224,0.2294,0.2363,0.2401,0.2469,0.2455,0.2533,0.2511,0.2532,0.2543,0.2546,0.2404,0.2367,0.2469,0.2566,0.2564,0.2563,0.2562,0.2561,0,0.1712,0.1798,0.1849,0.1878,0.1971,0.2021,0.2078,0.217,0.2228,0.2335,0.2391,0.2466,0.2527,0.2559,0.2603,0.2581,0.2675,0.264,0.254,0.2532,0.2598,0.2589,0.2687,0.2687,0.2686,0.2686,0.2686,0,0.1688,0.1733,0.184,0.1863,0.1932,0.2007,0.2089,0.216,0.2268,0.2325,0.2419,0.2472,0.256,0.262,0.2633,0.262,0.2705,0.2551,0.2541,0.2626,0.2618,0.2606,0.2595,0.2689,0.2688,0.2688,0.2687,0,0.1622,0.1695,0.1757,0.187,0.1912,0.196,0.2092,0.2139,0.2261,0.2341,0.2383,0.2511,0.2585,0.2654,0.2721,0.2653,0.2655,0.2631,0.2741,0.2735,0.2485,0.2477,0.2507,0.2503,0.25,0.2497,0.2495,0,0.1586,0.1615,0.1745,0.1785,0.1844,0.1932,0.1986,0.2122,0.217,0.2336,0.2355,0.249,0.2553,0.2546,0.263,0.2652,0.2623,0.2606,0.2512,0.2478,0.2466,0.2464,0.2461,0.2489,0.2488,0.2488,0.2487,0,0.1516,0.1582,0.1632,0.1717,0.1786,0.1845,0.1935,0.196,0.2098,0.2234,0.2276,0.2318,0.2403,0.2453,0.2505,0.2508,0.2598,0.2569,0.2575,0.2486,0.2457,0.2448,0.2449,0.2475,0.2477,0.2478,0.2478,0,0.1469,0.1486,0.1566,0.1624,0.1706,0.1725,0.1787,0.1841,0.1909,0.2085,0.2098,0.2238,0.2373,0.2382,0.2422,0.2428,0.238,0.2285,0.2304,0.2318,0.2221,0.2154,0.2073,0,0,0,0,0,0.1406,0.1412,0.1463,0.1512,0.1588,0.1634,0.1734,0.1796,0.193,0.1908,0.1998,0.2063,0.2125,0.2207,0.2176,0.2346,0.2394,0.2299,0.2295,0.241,0.2423,0.2327,0,0,0,0,0,0,0.1362,0.1405,0.142,0.1406,0.1421,0.1481,0.1538,0.1629,0.1625,0.1775,0.1824,0.1946,0.2044,0.2126,0.2139,0.2165,0.2121,0.2399,0.2394,0.2402,0.2414,0.2425,0.2331,0,0,0,0,0]},{"header":{"parameterUnit":"m.s-1","parameterCategory":2,"la1":30.2991,"la2":30.254,"lo1":-89.0895,"lo2":-89.0444,"dy":0.0017,"dx":0.0017,"nx":28,"ny":28,"refTime":"2024-10-05T09:00:00:Z","depth":"4","parameterNumber":3,"parameterNumberName":"V-component_of_CURRENTS"},"data":[0,0,0,0,0,0,0,0,0,0,0,0,0,0,0,0,0,0,0,0,0,0,0,0,0,0,0,0,0,0,0,0,0,0,0,0,0,0,0,0,0,0,0,0,0,0,0,0,0,0,0,0,0,0,0,0,0,0,0.0151,0.0151,0,0.0106,0.0106,0.0105,0.008,0.0081,0.0081,0.0081,0.0009,0.0007,0.0005,0,0,0,0,0,0,0,0,0,0,0,0,0,0.0176,0.0176,0.0151,0.0151,0.015,0.0106,0.0106,0.0105,0.008,0.0081,0.0081,0.0081,0.001,0.0007,0.0005,0,0,0,0,0,0,0,0,0,0,0,0,0,0.0151,0.0176,0.0151,0.0134,0.0132,0.0106,0.0106,0.0105,0.008,0.0081,0.0081,0.0081,0.0011,0.0008,0.0005,-0.0014,0,0,-0.0004,-0.0005,0,0,0,0,0,0,0,0,0.0152,0.015,0.0137,0.0135,0.0132,0.01,0.0088,0.0064,0.008,0.0099,0.0081,0.0081,0.0038,0.0032,0.0023,-0.0017,-0.002,-0.0004,-0.0006,-0.0007,-0.0008,0,0,0,0,0,0,0,0.0154,0.0151,0.0132,0.0136,0.0134,0.0114,0.0111,0.0083,0.0067,0.0097,0.0096,0.0092,0.0036,0.0026,0.0021,-0.0021,-0.0004,-0.0007,-0.0008,-0.001,-0.0092,-0.0092,0,0,0,0,0,0,0.0163,0.0153,0.0134,0.0131,0.0144,0.0114,0.011,0.0109,0.0068,0.0062,0.0092,0.0091,0.0031,0.0024,0.0018,0.0,-0.0007,-0.001,-0.0012,-0.0091,-0.0092,-0.0092,0,0,0,0,0,0,0.0164,0.0162,0.0136,0.0142,0.0137,0.0114,0.0113,0.0109,0.0099,0.0065,0.0058,0.0088,0.0031,0.0022,-0.0005,-0.0003,-0.0011,-0.0014,-0.0091,-0.0091,-0.0092,-0.004,0,0,0,0,0,0,0.0165,0.0163,0.0166,0.0142,0.0137,0.0123,0.0113,0.0108,0.0097,0.0096,0.0059,0.0052,0.003,-0.0001,-0.0008,-0.0007,-0.0016,-0.009,-0.0091,-0.0092,-0.0041,-0.0039,-0.0037,0,0,0,0,0,0.0166,0.0171,0.0166,0.0164,0.0142,0.0123,0.0118,0.0101,0.0097,0.0093,0.0068,0.0053,-0.0011,-0.0003,-0.0012,-0.0011,-0.009,-0.0091,-0.0092,-0.0042,-0.0039,-0.0037,0,0,0,0,0,0,0.0182,0.0168,0.0163,0.0163,0.0145,0.0119,0.0116,0.0103,0.0081,0.0081,0.0048,0.004,0.0016,-0.0009,0.0001,-0.004,-0.0054,-0.0057,-0.0013,-0.0011,-0.0009,0.0015,-0.0018,0,0,0,0,0,0.0188,0.019,0.0169,0.0169,0.0163,0.014,0.0131,0.012,0.0097,0.0088,0.0061,0.0032,0.0004,-0.0011,-0.004,-0.0061,-0.008,-0.0069,-0.0066,-0.0064,-0.0053,-0.0078,-0.0077,-0.0096,-0.0095,-0.0095,0,0,0.0195,0.0188,0.0189,0.0173,0.016,0.0157,0.0135,0.0125,0.0122,0.0083,0.007,0.0038,-0.0001,-0.0024,-0.0037,-0.0042,-0.0072,-0.0066,-0.0063,-0.0053,-0.0079,-0.0077,-0.0075,-0.0096,-0.0096,-0.0096,0,0,0.0211,0.0203,0.0211,0.0199,0.0184,0.017,0.0169,0.0144,0.0133,0.0114,0.0085,0.0058,0.0014,-0.0009,-0.0028,-0.0033,-0.0061,-0.0049,-0.0016,-0.0041,-0.0039,-0.0038,-0.0066,-0.0068,-0.0046,-0.0046,-0.0046,0,0.0221,0.0228,0.0209,0.0211,0.0211,0.018,0.0188,0.0169,0.0138,0.0135,0.0116,0.0059,0.0024,0.0003,-0.0001,-0.0026,-0.0046,-0.0018,-0.0036,-0.0035,-0.0034,-0.0064,-0.0066,-0.0044,-0.0044,-0.0044,-0.0044,0,0.024,0.0247,0.025,0.0248,0.0242,0.0243,0.022,0.021,0.0193,0.0176,0.0151,0.01,0.0071,0.0048,0.0022,0.0007,-0.0012,-0.0029,-0.0035,-0.0028,-0.0061,-0.0064,-0.004,-0.0041,-0.0042,-0.0042,0,0,0.0261,0.0265,0.0267,0.0282,0.0265,0.0267,0.0262,0.0254,0.0264,0.0219,0.0223,0.0163,0.014,0.0117,0.0075,0.0049,0.0027,0.0017,0.0014,0.0002,-0.003,-0.0049,-0.0055,0.0009,0.0009,0.0009,-0.0057,0,0.0284,0.0309,0.0301,0.0329,0.0342,0.0321,0.0322,0.031,0.0296,0.0289,0.0234,0.0218,0.0165,0.0155,0.0118,0.0052,0.0022,0.0046,-0.0046,-0.0049,-0.0055,-0.0058,0.0009,-0.0059,-0.006,-0.006,-0.0061,0,0.0306,0.0323,0.0356,0.0382,0.0386,0.0396,0.0411,0.0409,0.0386,0.0376,0.0349,0.0306,0.0257,0.0212,0.0109,0.0128,0.0057,0.0001,-0.0003,-0.0037,-0.0073,-0.0069,-0.0067,-0.0066,-0.0066,-0.0066,-0.0065,0,0.0337,0.0365,0.04,0.0406,0.0421,0.0437,0.0445,0.0438,0.0458,0.0437,0.0449,0.0377,0.0349,0.0253,0.0129,0.0123,0.0014,-0.001,-0.0095,-0.0098,-0.0082,-0.0083,-0.0077,-0.0077,-0.0076,-0.0076,-0.0076,0,0.0365,0.0394,0.0422,0.0439,0.049,0.0482,0.0532,0.0528,0.0539,0.0571,0.0502,0.0502,0.036,0.0277,0.0157,0.0021,0.0033,-0.0085,-0.0113,-0.0062,-0.006,-0.0085,-0.0085,-0.0079,-0.0078,-0.0078,-0.0077,0,0.0391,0.0404,0.0451,0.0486,0.0507,0.0542,0.0601,0.0636,0.0634,0.0675,0.0673,0.0602,0.0487,0.0336,0.0175,0.0067,-0.0066,-0.0119,-0.0051,-0.0074,-0.0169,-0.0166,-0.0214,-0.0215,-0.0216,-0.0217,-0.0218,0,0.0404,0.0431,0.0495,0.0534,0.0555,0.0613,0.0656,0.0682,0.0726,0.0733,0.0754,0.0663,0.059,0.0357,0.0183,-0.0047,-0.0086,-0.0159,-0.0169,-0.016,-0.0182,-0.0178,-0.0173,-0.0219,-0.0219,-0.022,-0.022,0,0.0433,0.0458,0.05,0.0582,0.0642,0.0714,0.0777,0.0818,0.0844,0.0851,0.0827,0.07,0.0566,0.0365,0.0183,0.0016,-0.0114,-0.017,-0.0169,-0.0179,-0.0167,-0.0187,-0.0182,-0.0223,-0.0223,-0.0222,-0.0222,0,0.046,0.0495,0.0555,0.063,0.0709,0.0784,0.0816,0.0862,0.0901,0.0903,0.0891,0.074,0.0652,0.0398,0.0232,0.0062,0.0012,-0.005,-0.0056,-0.0055,0.0001,0.004,0.003,0,0,0,0,0,0.0482,0.0527,0.0599,0.0678,0.0758,0.0807,0.0887,0.091,0.0938,0.0934,0.0916,0.0789,0.0539,0.0432,0.0261,0.0196,-0.0028,-0.0013,-0.0105,-0.0242,-0.0238,-0.0203,0,0,0,0,0,0,0.0496,0.0565,0.0601,0.0707,0.0768,0.0861,0.0913,0.0933,0.0929,0.0927,0.0803,0.0737,0.0499,0.0642,0.0257,0.0204,0.0119,-0.0128,-0.0132,-0.0244,-0.0241,-0.0237,-0.02,0,0,0,0,0]}]]